Weather History for Rolla, MO

Change the Weather History Date:

Sunday, March 3, 2013

  Actual Average Record
Temperature  
Mean Temperature 25 °F 41 °F  
Max Temperature 40 °F 51 °F 80 °F (1974)
Min Temperature 9 °F 30 °F 1 °F (2014)
Degree Days  
Heating Degree Days 40 24  
Month to date heating degree days 119 74  
Since 1 July heating degree days 3705 3864  
Cooling Degree Days 0 0  
Month to date cooling degree days 0 0  
Year to date cooling degree days 0 0  
Moisture  
Dew Point 18 °F    
Average Humidity 72    
Maximum Humidity 100    
Minimum Humidity 44    
Precipitation  
Precipitation 0.00 in 0.08 in 1.97 in (1976)
Month to date precipitation 0.02 0.24  
Year to date precipitation 4.73 4.34  
Sea Level Pressure  
Sea Level Pressure 30.09 in    
Wind  
Wind Speed 7 mph (SSE)    
Max Wind Speed 18 mph    
Max Gust Speed 24 mph    
Visibility 10 miles    
Events      
T = Trace of Precipitation, MM = Missing Value Source: NWS Daily Summary

Daily Weather History Graph

Daily Weather History Graph

Search for Another Location

Airport:

Trip Planner

Search our weather history database for the weather conditions in past years. The results will help you decide how hot, cold, wet, or windy it might be!

Date:

Astronomy

Mar. 03, 2013 Rise Set
Actual Time 6:35 AM CST 6:02 PM CST
Civil Twilight 6:09 AM CST 6:29 PM CST
Nautical Twilight 5:38 AM CST 6:59 PM CST
Astronomical Twilight 5:08 AM CST 7:30 PM CST
Moon No Moon Rise 9:57 AM CST (3/3)
Length of Visible Light 12h 19m
Length of Day
11h 27m
Waning Gibbous, 63% of the Moon is Illuminated
Mar 3
Waning Gibbous
Mar 4
Last Quarter
Mar 11
New
Mar 19
First Quarter
Mar 27
Full

Hourly Weather History & Observations

Time (CST) Temp. Windchill Dew Point Humidity Pressure Visibility Wind Dir Wind Speed Gust Speed Precip Events Conditions
12:53 AM 12.9 °F - 10.0 °F 88% 30.24 in 10.0 mi Calm Calm - N/A   Clear
1:53 AM 17.1 °F - 12.0 °F 81% 30.22 in 10.0 mi Calm Calm - N/A   Clear
2:53 AM 10.9 °F 2.9 °F 10.0 °F 96% 30.19 in 10.0 mi South 4.6 mph - N/A   Clear
3:53 AM 16.0 °F 10.4 °F 10.9 °F 81% 30.18 in 10.0 mi South 3.5 mph - N/A   Clear
4:53 AM 12.0 °F 4.1 °F 9.0 °F 88% 30.18 in 10.0 mi SSW 4.6 mph - N/A   Clear
5:53 AM 17.1 °F 11.7 °F 12.0 °F 81% 30.17 in 10.0 mi SSE 3.5 mph - N/A   Clear
6:53 AM 16.0 °F 8.8 °F 12.0 °F 84% 30.17 in 10.0 mi SSW 4.6 mph - N/A   Clear
7:53 AM 19.0 °F 10.0 °F 16.0 °F 88% 30.18 in 10.0 mi SSW 6.9 mph - N/A   Partly Cloudy
8:53 AM 25.0 °F 17.1 °F 18.0 °F 75% 30.18 in 10.0 mi South 6.9 mph - N/A   Overcast
9:53 AM 28.0 °F 21.7 °F 19.0 °F 69% 30.16 in 10.0 mi SE 5.8 mph - N/A   Overcast
10:53 AM 30.9 °F 27.5 °F 19.0 °F 61% 30.15 in 10.0 mi SSE 3.5 mph - N/A   Mostly Cloudy
11:53 AM 35.1 °F 28.6 °F 18.0 °F 50% 30.11 in 10.0 mi SSE 8.1 mph - N/A   Overcast
12:53 PM 37.0 °F 32.4 °F 18.0 °F 46% 30.09 in 10.0 mi SE 5.8 mph - N/A   Overcast
1:53 PM 37.0 °F 31.0 °F 21.0 °F 52% 30.04 in 10.0 mi SE 8.1 mph - N/A   Overcast
2:53 PM 39.9 °F 33.4 °F 23.0 °F 51% 30.03 in 10.0 mi ESE 10.4 mph - N/A   Overcast
3:53 PM 39.0 °F 32.3 °F 21.0 °F 49% 30.00 in 10.0 mi SE 10.4 mph - N/A   Overcast
4:53 PM 39.0 °F 31.8 °F 23.0 °F 53% 29.99 in 10.0 mi ESE 11.5 mph - N/A   Overcast
5:53 PM 37.9 °F 30.9 °F 21.0 °F 51% 29.98 in 10.0 mi ESE 10.4 mph - N/A   Mostly Cloudy
6:53 PM 37.0 °F 30.4 °F 21.9 °F 54% 29.99 in 10.0 mi ESE 9.2 mph - N/A   Overcast
7:53 PM 37.0 °F 29.3 °F 21.9 °F 54% 29.98 in 10.0 mi ESE 11.5 mph - N/A   Mostly Cloudy
8:53 PM 37.0 °F 29.8 °F 21.0 °F 52% 29.97 in 10.0 mi SE 10.4 mph - N/A   Clear
9:53 PM 37.0 °F 28.5 °F 21.9 °F 54% 29.96 in 10.0 mi SE 13.8 mph - N/A   Clear
10:53 PM 36.0 °F 27.1 °F 23.0 °F 59% 29.95 in 10.0 mi SE 13.8 mph 21.9 mph N/A   Mostly Cloudy
11:53 PM 35.1 °F 26.9 °F 25.0 °F 67% 29.94 in 10.0 mi SE 11.5 mph - N/A   Clear